Weather History for Beach, ND

Change the Weather History Date:

Monday, December 3, 2012

  Actual Average (KGDV) Record (KGDV)
Temperature  
Mean Temperature 40 °F -  
Max Temperature 50 °F 33 °F 51 °F (2012)
Min Temperature 30 °F 15 °F -13 °F (2006)
Degree Days  
Heating Degree Days 25    
Moisture  
Dew Point 23 °F    
Average Humidity 52    
Maximum Humidity 87    
Minimum Humidity 32    
Precipitation  
Precipitation 0.00 in - - ()
Sea Level Pressure  
Sea Level Pressure 29.81 in    
Wind  
Wind Speed 17 mph (West)    
Max Wind Speed 30 mph    
Max Gust Speed 43 mph    
Visibility 10 miles    
Events Rain    
Averages and records for this station are not official NWS values.
T = Trace of Precipitation, MM = Missing Value Source: NWS Daily Summary

Daily Weather History Graph

Daily Weather History Graph

Search for Another Location

Airport:

Trip Planner

Search our weather history database for the weather conditions in past years. The results will help you decide how hot, cold, wet, or windy it might be!

Date:

Astronomy

Dec. 03, 2012 Rise Set
Actual Time 7:23 AM MST 4:08 PM MST
Civil Twilight 6:48 AM MST 4:42 PM MST
Nautical Twilight 6:10 AM MST 5:21 PM MST
Astronomical Twilight 5:33 AM MST 5:57 PM MST
Moon 9:08 PM MST (12/3) 10:38 AM MST (12/3)
Length of Visible Light 9h 54m
Length of Day
8h 44m
Waning Gibbous, 77% of the Moon is Illuminated
Dec 3
Waning Gibbous
Dec 6
Last Quarter
Dec 13
New
Dec 19
First Quarter
Dec 28
Full

Hourly Weather History & Observations

Time (MST) Temp. Windchill Dew Point Humidity Pressure Visibility Wind Dir Wind Speed Gust Speed Precip Events Conditions
2:55 AM 39.2 °F 33.0 °F 35.6 °F 87% 29.61 in - West 9.2 mph - N/A   Unknown
3:15 AM 41.0 °F 32.5 °F 33.8 °F 76% 29.61 in 10.0 mi West 17.3 mph - N/A   Overcast
3:35 AM 41.0 °F 32.8 °F 32.0 °F 70% 29.62 in 10.0 mi West 16.1 mph - N/A   Mostly Cloudy
3:55 AM 41.0 °F 32.2 °F 28.4 °F 61% 29.63 in 10.0 mi WNW 18.4 mph 25.3 mph N/A   Scattered Clouds
4:15 AM 39.2 °F 30.5 °F 26.6 °F 61% 29.64 in 10.0 mi West 16.1 mph - N/A   Clear
4:35 AM 39.2 °F 30.2 °F 26.6 °F 61% 29.64 in 10.0 mi West 17.3 mph 24.2 mph N/A   Clear
4:55 AM 37.4 °F 27.5 °F 24.8 °F 60% 29.66 in 10.0 mi West 18.4 mph 23.0 mph N/A   Clear
5:15 AM 37.4 °F 27.5 °F 24.8 °F 60% 29.67 in 10.0 mi West 18.4 mph 25.3 mph N/A   Clear
5:35 AM 37.4 °F 27.5 °F 24.8 °F 60% 29.67 in 10.0 mi West 18.4 mph 24.2 mph N/A   Clear
5:55 AM 35.6 °F 24.8 °F 23.0 °F 60% 29.67 in 10.0 mi West 19.6 mph 23.0 mph N/A   Clear
6:15 AM 37.4 °F 27.2 °F 23.0 °F 56% 29.69 in 10.0 mi West 19.6 mph 29.9 mph N/A   Clear
6:35 AM 35.6 °F 24.5 °F 23.0 °F 60% 29.69 in 10.0 mi West 20.7 mph - N/A   Clear
6:55 AM 35.6 °F 24.8 °F 23.0 °F 60% 29.71 in 10.0 mi West 19.6 mph 25.3 mph N/A   Clear
7:15 AM 33.8 °F 22.8 °F 23.0 °F 65% 29.71 in 10.0 mi West 18.4 mph 26.5 mph N/A   Clear
7:35 AM 35.6 °F 24.5 °F 23.0 °F 60% 29.72 in 10.0 mi West 20.7 mph 27.6 mph N/A   Clear
8:15 AM 35.6 °F 25.9 °F 23.0 °F 60% 29.73 in 10.0 mi WSW 16.1 mph 21.9 mph N/A   Clear
8:35 AM 35.6 °F 24.8 °F 23.0 °F 60% 29.74 in 10.0 mi West 19.6 mph 23.0 mph N/A   Clear
8:55 AM 37.4 °F 26.4 °F 23.0 °F 56% 29.74 in 10.0 mi West 23.0 mph 29.9 mph N/A   Clear
9:15 AM 39.2 °F 29.0 °F 23.0 °F 52% 29.75 in 10.0 mi West 21.9 mph 33.4 mph N/A   Clear
9:35 AM 41.0 °F 30.9 °F 23.0 °F 49% 29.76 in 10.0 mi West 24.2 mph 34.5 mph N/A   Clear
9:55 AM 41.0 °F 29.8 °F 23.0 °F 49% 29.76 in 10.0 mi West 29.9 mph 39.1 mph N/A   Clear
10:15 AM 42.8 °F 33.3 °F 23.0 °F 46% 29.76 in 10.0 mi West 24.2 mph 34.5 mph N/A   Clear
10:35 AM 44.6 °F 35.9 °F 23.0 °F 43% 29.77 in 10.0 mi West 23.0 mph 34.5 mph N/A   Clear
10:55 AM 44.6 °F 35.1 °F 23.0 °F 43% 29.78 in 10.0 mi West 27.6 mph 34.5 mph N/A   Clear
11:15 AM 44.6 °F 35.3 °F 23.0 °F 43% 29.78 in 10.0 mi West 26.5 mph 38.0 mph N/A   Clear
11:35 AM 46.4 °F 38.3 °F 23.0 °F 40% 29.78 in 10.0 mi West 23.0 mph 31.1 mph N/A   Clear
11:55 AM 46.4 °F 38.1 °F 23.0 °F 40% 29.77 in 10.0 mi West 24.2 mph 32.2 mph N/A   Clear
12:15 PM 46.4 °F 37.5 °F 23.0 °F 40% 29.77 in 10.0 mi West 27.6 mph 33.4 mph N/A   Clear
12:35 PM 48.2 °F - 21.2 °F 34% 29.78 in 10.0 mi West 24.2 mph 36.8 mph N/A   Clear
12:55 PM 48.2 °F - 21.2 °F 34% 29.78 in 10.0 mi West 27.6 mph 40.3 mph N/A   Partly Cloudy
1:15 PM 50.0 °F - 21.2 °F 32% 29.79 in 10.0 mi WNW 28.8 mph 38.0 mph N/A   Partly Cloudy
1:35 PM 48.2 °F - 21.2 °F 34% 29.79 in 10.0 mi WNW 27.6 mph 42.6 mph N/A   Partly Cloudy
1:55 PM 48.2 °F - 19.4 °F 32% 29.80 in 10.0 mi WNW 28.8 mph 38.0 mph N/A   Clear
2:15 PM 48.2 °F - 19.4 °F 32% 29.81 in 10.0 mi WNW 24.2 mph 35.7 mph N/A   Clear
2:35 PM 48.2 °F - 21.2 °F 34% 29.81 in 10.0 mi West 20.7 mph 34.5 mph N/A   Clear
2:55 PM 48.2 °F - 21.2 °F 34% 29.82 in 10.0 mi West 19.6 mph 28.8 mph N/A   Clear
3:15 PM 48.2 °F - 21.2 °F 34% 29.83 in 10.0 mi West 13.8 mph - N/A   Mostly Cloudy
3:35 PM 46.4 °F 41.5 °F 21.2 °F 37% 29.83 in 10.0 mi West 10.4 mph - N/A Rain Light Rain
3:55 PM 42.8 °F 37.0 °F 21.2 °F 42% 29.84 in 10.0 mi WNW 10.4 mph - N/A   Scattered Clouds
4:15 PM 41.0 °F 33.5 °F 21.2 °F 45% 29.85 in 10.0 mi WNW 13.8 mph - N/A   Mostly Cloudy
4:35 PM 42.8 °F 35.8 °F 21.2 °F 42% 29.85 in 10.0 mi West 13.8 mph - N/A   Overcast
4:55 PM 41.0 °F 33.5 °F 21.2 °F 45% 29.86 in 10.0 mi West 13.8 mph - N/A   Overcast
5:15 PM 41.0 °F 33.9 °F 21.2 °F 45% 29.86 in 10.0 mi West 12.7 mph - N/A   Overcast
5:35 PM 41.0 °F 34.7 °F 21.2 °F 45% 29.88 in 10.0 mi West 10.4 mph - N/A   Overcast
5:55 PM 41.0 °F 34.3 °F 23.0 °F 49% 29.88 in 10.0 mi West 11.5 mph - N/A   Overcast
6:15 PM 41.0 °F 34.7 °F 21.2 °F 45% 29.89 in 10.0 mi WNW 10.4 mph - N/A   Mostly Cloudy
6:35 PM 37.4 °F 32.8 °F 21.2 °F 52% 29.91 in 10.0 mi West 5.8 mph - N/A   Mostly Cloudy
6:55 PM 35.6 °F 29.9 °F 23.0 °F 60% 29.92 in 10.0 mi SW 6.9 mph - N/A   Overcast
7:15 PM 37.4 °F 32.8 °F 21.2 °F 52% 29.92 in 10.0 mi WSW 5.8 mph - N/A   Overcast
7:35 PM 35.6 °F 29.9 °F 21.2 °F 56% 29.93 in 10.0 mi WSW 6.9 mph - N/A   Overcast
7:55 PM 33.8 °F 27.7 °F 21.2 °F 60% 29.94 in 10.0 mi SW 6.9 mph - N/A   Scattered Clouds
8:15 PM 33.8 °F 27.7 °F 21.2 °F 60% 29.94 in 10.0 mi SW 6.9 mph - N/A   Clear
8:35 PM 35.6 °F 27.5 °F 21.2 °F 56% 29.95 in 10.0 mi SW 11.5 mph - N/A   Clear
8:55 PM 35.6 °F 26.6 °F 21.2 °F 56% 29.95 in 10.0 mi SW 13.8 mph - N/A   Clear
9:15 PM 35.6 °F 27.5 °F 21.2 °F 56% 29.96 in 10.0 mi SW 11.5 mph - N/A   Partly Cloudy
9:35 PM 32.0 °F 24.8 °F 19.4 °F 60% 29.97 in 10.0 mi WSW 8.1 mph - N/A   Partly Cloudy
9:55 PM 30.2 °F 23.4 °F 19.4 °F 64% 29.98 in 10.0 mi WSW 6.9 mph - N/A   Clear
10:15 PM 32.0 °F 24.8 °F 21.2 °F 64% 29.98 in 10.0 mi WSW 8.1 mph - N/A   Mostly Cloudy
10:35 PM 32.0 °F 23.6 °F 21.2 °F 64% 29.99 in 10.0 mi WSW 10.4 mph - N/A   Mostly Cloudy
10:55 PM 32.0 °F 22.5 °F 21.2 °F 64% 29.99 in 10.0 mi WSW 12.7 mph - N/A   Scattered Clouds
11:15 PM 32.0 °F 24.2 °F 21.2 °F 64% 30.00 in 10.0 mi SW 9.2 mph - N/A   Clear
11:35 PM 32.0 °F 24.2 °F 21.2 °F 64% 30.01 in 10.0 mi WSW 9.2 mph - N/A   Clear
11:55 PM 32.0 °F 23.6 °F 21.2 °F 64% 30.01 in 10.0 mi WSW 10.4 mph - N/A   Scattered Clouds